Location: Namasale
(1.5000°N, 32.6167°E)
Time: 09:05:52
(UTC+00:00)

Courier 1B - Pass Details

Date: 20 April 2021
Orbit: 962 x 1209 km, 28.3° (Epoch: 15 May)

Event Time Altitude Azimuth Distance (km) Brightness Sun altitude
Rises 17:31:01 0° 305° (NW) 3,700 11.7 -24.7°
Reaches altitude 10° 17:33:38 10° 307° (NW) 2,779 10.7 -25.4°
Maximum altitude 17:40:23 70° 30° (NNE) 1,113 7.6 -27.0°
Enters shadow 17:41:22 62° 77° (ENE) 1,180 7.6 -27.2°
Drops below altitude 10° 17:47:37 10° 113° (ESE) 2,964 - -28.8°
Sets 17:50:29 0° 115° (ESE) 3,961 - -29.5°
